This is the latest recevied weather packets stored in our database for station/object W2MMD-13. If no packets are shown the sender has not sent any weather packets the latest 10 day(s).
| Time | Temp. | Humidity | Pressure | Rain* | Wind** | Luminosity | Snow |
|---|---|---|---|---|---|---|---|
| 1778000931 | 27.22° C | 45% | - | 0 mm | - | - | - |
| 1778000920 | 27.22° C | 45% | - | 0 mm | - | - | - |
| 1778000320 | 27.22° C | 43% | - | 0 mm | - | - | - |
| 1777999720 | 26.67° C | 44% | - | 0 mm | - | - | - |
| 1777999120 | 27.22° C | 45% | - | 0 mm | - | - | - |
| 1777998520 | 27.22° C | 46% | - | 0 mm | - | - | - |
| 1777997920 | 26.67° C | 46% | - | 0 mm | - | - | - |
| 1777997320 | 26.11° C | 47% | - | 0 mm | - | - | - |
| 1777996863 | 26.11° C | 47% | - | 0 mm | - | - | - |
| 1777996720 | 26.11° C | 47% | - | 0 mm | - | - | - |
| 1777996133 | 25.56° C | 47% | - | 0 mm | - | - | - |
| 1777996120 | 25.56° C | 47% | - | 0 mm | - | - | - |
| 1777995520 | 25.56° C | 50% | - | 0 mm | - | - | - |
| 1777995066 | 25° C | 49% | - | 0 mm | - | - | - |
| 1777994933 | 25° C | 49% | - | 0 mm | - | - | - |
| 1777994920 | 25° C | 49% | - | 0 mm | - | - | - |
| 1777994320 | 25° C | 51% | - | 0 mm | - | - | - |
| 1777993731 | 23.89° C | 53% | - | 0 mm | - | - | - |
| 1777993720 | 23.89° C | 53% | - | 0 mm | - | - | - |
| 1777993361 | 23.89° C | 52% | - | 0 mm | - | - | - |
| 1777993131 | 23.89° C | 52% | - | 0 mm | - | - | - |
| 1777993120 | 23.89° C | 52% | - | 0 mm | - | - | - |
| 1777992519 | 23.89° C | 54% | - | 0 mm | - | - | - |
| 1777991919 | 23.33° C | 55% | - | 0 mm | - | - | - |
| 1777991319 | 23.33° C | 55% | - | 0 mm | - | - | - |
* Rain latest hour (hover to see other rain measurements)
** Current wind speed in m/s (hover to see current wind gust speed)